| time (UTC) | temp F | wind direction | speed MPH | gust MPH | rain 1hr in | rain 24hr in | rain mn in | humidity % | barometer mb |
| 20260506042557 | 46 | 35 | 2.0 | 10.0 | 0.00 | 0.00 | 0.00 | 82 | 1013.0 |
| 20260506042100 | 46 | 45 | 2.0 | 11.0 | 0.00 | 0.00 | 0.00 | 82 | 1013.0 |
| 20260506041607 | 46 | 43 | 3.0 | 11.0 | 0.00 | 0.00 | 0.00 | 82 | 1012.9 |
| 20260506041056 | 46 | 26 | 3.0 | 10.0 | 0.00 | 0.00 | 0.00 | 82 | 1013.1 |
| 20260506040556 | 46 | 26 | 1.0 | 12.0 | 0.00 | 0.00 | 0.00 | 82 | 1013.0 |
| 20260506040100 | 47 | 0 | 3.0 | 12.0 | 0.00 | 0.00 | 0.00 | 82 | 1013.0 |
| 20260506035556 | 47 | 43 | 5.0 | 11.0 | 0.00 | 0.00 | 0.00 | 82 | 1012.9 |
| 20260506035056 | 47 | 33 | 4.0 | 13.0 | 0.00 | 0.00 | 0.00 | 82 | 1012.9 |
| 20260506034557 | 47 | 42 | 3.0 | 13.0 | 0.00 | 0.00 | 0.00 | 82 | 1013.0 |
| 20260506034057 | 47 | 16 | 5.0 | 12.0 | 0.00 | 0.00 | 0.00 | 82 | 1012.9 |
| 20260506033557 | 47 | 37 | 2.0 | 8.0 | 0.00 | 0.00 | 0.00 | 82 | 1013.0 |
| 20260506033055 | 47 | 45 | 2.0 | 9.0 | 0.00 | 0.00 | 0.00 | 82 | 1012.9 |
| 20260506032556 | 47 | 30 | 2.0 | 9.0 | 0.00 | 0.00 | 0.00 | 82 | 1012.8 |
| 20260506032056 | 47 | 45 | 3.0 | 8.0 | 0.00 | 0.00 | 0.00 | 82 | 1012.9 |
| 20260506031558 | 47 | 0 | 2.0 | 9.0 | 0.00 | 0.00 | 0.00 | 82 | 1012.9 |
| 20260506031057 | 47 | 33 | 3.0 | 9.0 | 0.00 | 0.00 | 0.00 | 82 | 1012.9 |
| 20260506030557 | 47 | 41 | 1.0 | 11.0 | 0.00 | 0.00 | 0.00 | 82 | 1012.9 |
| 20260506025556 | 48 | 25 | 2.0 | 11.0 | 0.00 | 0.00 | 0.00 | 82 | 1012.9 |
| 20260506025100 | 48 | 7 | 4.0 | 11.0 | 0.00 | 0.00 | 0.00 | 82 | 1012.8 |
| 20260506024602 | 48 | 51 | 4.0 | 9.0 | 0.00 | 0.00 | 0.00 | 82 | 1012.9 |
| 20260506024056 | 48 | 37 | 1.0 | 9.0 | 0.00 | 0.00 | 0.00 | 83 | 1013.0 |
| 20260506023556 | 48 | 32 | 3.0 | 9.0 | 0.00 | 0.00 | 0.00 | 83 | 1012.9 |
| 20260506023108 | 48 | 27 | 3.0 | 10.0 | 0.00 | 0.00 | 0.00 | 83 | 1012.9 |
| 20260506022557 | 48 | 40 | 2.0 | 10.0 | 0.00 | 0.00 | 0.00 | 82 | 1013.0 |
| 20260506022056 | 48 | 0 | 5.0 | 10.0 | 0.00 | 0.00 | 0.00 | 82 | 1012.9 |
| 20260506021617 | 48 | 36 | 2.0 | 5.0 | 0.00 | 0.00 | 0.00 | 82 | 1012.9 |
| 20260506021057 | 48 | 0 | 2.0 | 7.0 | 0.00 | 0.00 | 0.00 | 82 | 1012.9 |
| 20260506020555 | 49 | 36 | 2.0 | 8.0 | 0.00 | 0.00 | 0.00 | 82 | 1013.0 |
| 20260506020057 | 49 | 41 | 1.0 | 8.0 | 0.00 | 0.00 | 0.00 | 82 | 1013.0 |
| 20260506015557 | 49 | 0 | 3.0 | 9.0 | 0.00 | 0.00 | 0.00 | 82 | 1013.1 |
| 20260506015100 | 49 | 39 | 2.0 | 9.0 | 0.00 | 0.00 | 0.00 | 82 | 1013.1 |
| 20260506014555 | 49 | 54 | 3.0 | 9.0 | 0.00 | 0.00 | 0.00 | 81 | 1012.9 |
| 20260506014059 | 49 | 37 | 3.0 | 9.0 | 0.00 | 0.00 | 0.00 | 81 | 1013.0 |
| 20260506013558 | 49 | 55 | 3.0 | 8.0 | 0.00 | 0.00 | 0.00 | 81 | 1013.0 |
| 20260506013109 | 49 | 51 | 2.0 | 8.0 | 0.00 | 0.00 | 0.00 | 80 | 1013.0 |
| 20260506012557 | 49 | 51 | 3.0 | 8.0 | 0.00 | 0.00 | 0.00 | 80 | 1013.0 |
| 20260506012058 | 49 | 39 | 2.0 | 7.0 | 0.00 | 0.00 | 0.00 | 80 | 1013.0 |
| 20260506011617 | 49 | 42 | 1.0 | 8.0 | 0.00 | 0.00 | 0.00 | 79 | 1013.1 |
| 20260506011057 | 49 | 47 | 4.0 | 9.0 | 0.00 | 0.00 | 0.00 | 79 | 1013.2 |
| 20260506010557 | 50 | 55 | 2.0 | 9.0 | 0.00 | 0.00 | 0.00 | 79 | 1013.2 |
| 20260506010104 | 50 | 43 | 2.0 | 9.0 | 0.00 | 0.00 | 0.00 | 79 | 1013.2 |
| 20260506005600 | 50 | 42 | 2.0 | 9.0 | 0.00 | 0.00 | 0.00 | 78 | 1013.2 |
| 20260506005057 | 50 | 42 | 1.0 | 10.0 | 0.00 | 0.00 | 0.00 | 78 | 1013.2 |
| 20260506004602 | 50 | 42 | 3.0 | 10.0 | 0.00 | 0.00 | 0.00 | 78 | 1013.2 |
| 20260506004058 | 50 | 27 | 4.0 | 9.0 | 0.00 | 0.00 | 0.00 | 77 | 1013.3 |
| 20260506003558 | 50 | 54 | 3.0 | 9.0 | 0.00 | 0.00 | 0.00 | 76 | 1013.3 |
| 20260506003058 | 50 | 51 | 2.0 | 10.0 | 0.00 | 0.00 | 0.00 | 76 | 1013.2 |
| 20260506002557 | 50 | 58 | 4.0 | 12.0 | 0.00 | 0.00 | 0.00 | 76 | 1013.2 |
| 20260506002057 | 50 | 71 | 4.0 | 12.0 | 0.00 | 0.00 | 0.00 | 76 | 1013.3 |
| 20260506001600 | 50 | 61 | 5.0 | 12.0 | 0.00 | 0.00 | 0.00 | 75 | 1013.2 |
| 20260506001058 | 50 | 55 | 4.0 | 11.0 | 0.00 | 0.00 | 0.00 | 75 | 1013.2 |
| 20260506000558 | 51 | 16 | 5.0 | 11.0 | 0.00 | 0.00 | 0.00 | 76 | 1013.2 |
| 20260506000108 | 51 | 57 | 5.0 | 11.0 | 0.00 | 0.00 | 0.00 | 76 | 1013.3 |
| 20260505235558 | 51 | 43 | 5.0 | 10.0 | 0.00 | 0.00 | 0.00 | 76 | 1013.3 |
| 20260505235057 | 51 | 23 | 4.0 | 13.0 | 0.00 | 0.00 | 0.00 | 76 | 1013.2 |
| 20260505234559 | 51 | 59 | 4.0 | 13.0 | 0.00 | 0.00 | 0.00 | 76 | 1013.1 |
| 20260505234057 | 51 | 33 | 4.0 | 11.0 | 0.00 | 0.00 | 0.00 | 76 | 1013.2 |
| 20260505233558 | 51 | 0 | 5.0 | 11.0 | 0.00 | 0.00 | 0.00 | 76 | 1013.2 |
| 20260505233108 | 52 | 45 | 5.0 | 12.0 | 0.00 | 0.00 | 0.00 | 76 | 1013.2 |
| 20260505232557 | 52 | 20 | 5.0 | 12.0 | 0.00 | 0.00 | 0.00 | 75 | 1013.1 |
| 20260505232057 | 52 | 42 | 5.0 | 11.0 | 0.00 | 0.00 | 0.00 | 75 | 1013.1 |
| 20260505231613 | 52 | 16 | 5.0 | 11.0 | 0.00 | 0.00 | 0.00 | 75 | 1013.0 |
| 20260505231056 | 52 | 36 | 5.0 | 12.0 | 0.00 | 0.00 | 0.00 | 75 | 1012.8 |
| 20260505230559 | 52 | 24 | 4.0 | 12.0 | 0.00 | 0.00 | 0.00 | 75 | 1012.9 |
| 20260505230100 | 53 | 24 | 3.0 | 12.0 | 0.00 | 0.00 | 0.00 | 76 | 1013.0 |
| 20260505225557 | 53 | 66 | 2.0 | 11.0 | 0.00 | 0.00 | 0.00 | 76 | 1013.1 |
| 20260505225057 | 53 | 71 | 3.0 | 11.0 | 0.00 | 0.00 | 0.00 | 76 | 1013.0 |
| 20260505224604 | 53 | 43 | 4.0 | 11.0 | 0.00 | 0.00 | 0.00 | 76 | 1012.9 |
| 20260505224058 | 53 | 57 | 3.0 | 9.0 | 0.00 | 0.00 | 0.00 | 76 | 1012.9 |
| 20260505223559 | 53 | 35 | 3.0 | 11.0 | 0.00 | 0.00 | 0.00 | 75 | 1012.8 |
| 20260505223058 | 53 | 43 | 3.0 | 11.0 | 0.00 | 0.00 | 0.00 | 75 | 1012.8 |
| 20260505222600 | 53 | 49 | 2.0 | 11.0 | 0.00 | 0.00 | 0.00 | 75 | 1012.7 |
| 20260505222057 | 53 | 48 | 4.0 | 11.0 | 0.00 | 0.00 | 0.00 | 75 | 1012.8 |
| 20260505221604 | 53 | 39 | 3.0 | 9.0 | 0.00 | 0.00 | 0.00 | 75 | 1012.7 |
| 20260505221056 | 53 | 47 | 4.0 | 9.0 | 0.00 | 0.00 | 0.00 | 75 | 1012.5 |
| 20260505220556 | 53 | 34 | 3.0 | 8.0 | 0.00 | 0.00 | 0.00 | 75 | 1012.6 |
| 20260505220105 | 53 | 49 | 2.0 | 6.0 | 0.00 | 0.00 | 0.00 | 75 | 1012.6 |
| 20260505215556 | 53 | 42 | 2.0 | 11.0 | 0.00 | 0.00 | 0.00 | 75 | 1012.5 |
| 20260505215056 | 53 | 43 | 4.0 | 11.0 | 0.00 | 0.00 | 0.00 | 75 | 1012.5 |
| 20260505214600 | 53 | 36 | 4.0 | 11.0 | 0.00 | 0.00 | 0.00 | 74 | 1012.6 |
| 20260505214058 | 54 | 37 | 3.0 | 11.0 | 0.00 | 0.00 | 0.00 | 73 | 1012.5 |
| 20260505213555 | 54 | 0 | 4.0 | 10.0 | 0.00 | 0.00 | 0.00 | 73 | 1012.5 |
| 20260505213111 | 54 | 65 | 4.0 | 10.0 | 0.00 | 0.00 | 0.00 | 72 | 1012.5 |
| 20260505212555 | 54 | 44 | 4.0 | 12.0 | 0.00 | 0.00 | 0.00 | 72 | 1012.6 |
| 20260505212056 | 54 | 52 | 5.0 | 12.0 | 0.00 | 0.00 | 0.00 | 71 | 1012.4 |
| 20260505211605 | 54 | 37 | 4.0 | 13.0 | 0.00 | 0.00 | 0.00 | 71 | 1012.4 |
| 20260505211057 | 54 | 21 | 4.0 | 13.0 | 0.00 | 0.00 | 0.00 | 71 | 1012.5 |
| 20260505210556 | 54 | 16 | 7.0 | 13.0 | 0.00 | 0.00 | 0.00 | 71 | 1012.4 |
| 20260505210106 | 54 | 17 | 4.0 | 11.0 | 0.00 | 0.00 | 0.00 | 71 | 1012.3 |
| 20260505205556 | 54 | 42 | 5.0 | 11.0 | 0.00 | 0.00 | 0.00 | 71 | 1012.3 |
| 20260505205056 | 54 | 45 | 5.0 | 13.0 | 0.00 | 0.00 | 0.00 | 71 | 1012.4 |
| 20260505204600 | 55 | 36 | 5.0 | 13.0 | 0.00 | 0.00 | 0.00 | 70 | 1012.4 |
| 20260505204056 | 55 | 51 | 4.0 | 13.0 | 0.00 | 0.00 | 0.00 | 71 | 1012.4 |
| 20260505203556 | 55 | 30 | 6.0 | 13.0 | 0.00 | 0.00 | 0.00 | 71 | 1012.3 |
| 20260505203126 | 55 | 11 | 4.0 | 14.0 | 0.00 | 0.00 | 0.00 | 71 | 1012.3 |
| 20260505202559 | 55 | 56 | 7.0 | 14.0 | 0.00 | 0.00 | 0.00 | 71 | 1012.2 |
| 20260505202057 | 55 | 39 | 6.0 | 12.0 | 0.00 | 0.00 | 0.00 | 71 | 1012.3 |
| 20260505201603 | 55 | 38 | 4.0 | 9.0 | 0.00 | 0.00 | 0.00 | 71 | 1012.2 |
| 20260505201056 | 55 | 38 | 4.0 | 10.0 | 0.00 | 0.00 | 0.00 | 71 | 1012.1 |
| 20260505200556 | 56 | 30 | 3.0 | 10.0 | 0.00 | 0.00 | 0.00 | 71 | 1012.2 |
| 20260505200059 | 56 | 31 | 2.0 | 8.0 | 0.00 | 0.00 | 0.00 | 70 | 1012.0 |
| 20260505195600 | 56 | 29 | 2.0 | 8.0 | 0.00 | 0.00 | 0.00 | 70 | 1012.1 |
| 20260505195059 | 56 | 0 | 3.0 | 6.0 | 0.00 | 0.00 | 0.00 | 70 | 1012.0 |
| 20260505194559 | 56 | 16 | 1.0 | 7.0 | 0.00 | 0.00 | 0.00 | 70 | 1011.8 |
| 20260505194056 | 56 | 16 | 1.0 | 7.0 | 0.00 | 0.00 | 0.00 | 70 | 1011.9 |
| 20260505193557 | 56 | 0 | 0.0 | 5.0 | 0.00 | 0.00 | 0.00 | 69 | 1011.8 |
| 20260505193057 | 56 | 0 | 1.0 | 6.0 | 0.00 | 0.00 | 0.00 | 69 | 1011.8 |
| 20260505192559 | 56 | 0 | 2.0 | 7.0 | 0.00 | 0.00 | 0.00 | 69 | 1011.8 |
| 20260505192056 | 56 | 22 | 1.0 | 7.0 | 0.00 | 0.00 | 0.00 | 69 | 1011.8 |
| 20260505191611 | 56 | 23 | 2.0 | 6.0 | 0.00 | 0.00 | 0.00 | 69 | 1011.7 |
| 20260505191056 | 57 | 30 | 2.0 | 9.0 | 0.00 | 0.00 | 0.00 | 68 | 1011.7 |
| 20260505190556 | 57 | 14 | 2.0 | 9.0 | 0.00 | 0.00 | 0.00 | 68 | 1011.6 |
| 20260505190057 | 57 | 29 | 2.0 | 9.0 | 0.00 | 0.00 | 0.00 | 68 | 1011.7 |
| 20260505185556 | 57 | 28 | 2.0 | 9.0 | 0.00 | 0.00 | 0.00 | 68 | 1011.6 |
| 20260505185058 | 57 | 10 | 2.0 | 8.0 | 0.00 | 0.00 | 0.00 | 67 | 1011.6 |
| 20260505184559 | 57 | 25 | 2.0 | 9.0 | 0.00 | 0.00 | 0.00 | 67 | 1011.6 |
| 20260505184057 | 57 | 24 | 3.0 | 9.0 | 0.00 | 0.00 | 0.00 | 67 | 1011.6 |
| 20260505183557 | 57 | 3 | 2.0 | 10.0 | 0.00 | 0.00 | 0.00 | 67 | 1011.6 |
| 20260505183058 | 57 | 1 | 3.0 | 10.0 | 0.00 | 0.00 | 0.00 | 66 | 1011.6 |
| 20260505182556 | 57 | 44 | 3.0 | 10.0 | 0.00 | 0.00 | 0.00 | 66 | 1011.5 |
| 20260505182056 | 57 | 18 | 4.0 | 10.0 | 0.00 | 0.00 | 0.00 | 66 | 1011.6 |
| 20260505181558 | 58 | 5 | 2.0 | 10.0 | 0.00 | 0.00 | 0.00 | 66 | 1011.5 |
| 20260505181056 | 58 | 342 | 3.0 | 10.0 | 0.00 | 0.00 | 0.00 | 66 | 1011.6 |
| 20260505180557 | 58 | 14 | 3.0 | 8.0 | 0.00 | 0.00 | 0.00 | 66 | 1011.6 |
| 20260505175559 | 57 | 7 | 1.0 | 9.0 | 0.00 | 0.00 | 0.00 | 67 | 1011.5 |
| 20260505175059 | 57 | 5 | 3.0 | 9.0 | 0.00 | 0.00 | 0.00 | 67 | 1011.5 |
| 20260505174605 | 57 | 20 | 1.0 | 8.0 | 0.00 | 0.00 | 0.00 | 68 | 1011.6 |
| 20260505174058 | 57 | 9 | 1.0 | 5.0 | 0.00 | 0.00 | 0.00 | 68 | 1011.5 |
| 20260505173556 | 57 | 8 | 0.0 | 5.0 | 0.00 | 0.00 | 0.00 | 68 | 1011.6 |
| 20260505173059 | 57 | 0 | 1.0 | 7.0 | 0.00 | 0.00 | 0.00 | 68 | 1011.7 |
| 20260505172556 | 57 | 1 | 2.0 | 7.0 | 0.00 | 0.00 | 0.00 | 68 | 1011.7 |
| 20260505172057 | 57 | 0 | 2.0 | 5.0 | 0.00 | 0.00 | 0.00 | 69 | 1011.7 |
| 20260505171557 | 57 | 7 | 1.0 | 5.0 | 0.00 | 0.00 | 0.00 | 69 | 1011.6 |
| 20260505171058 | 57 | 0 | 2.0 | 8.0 | 0.00 | 0.00 | 0.00 | 68 | 1011.7 |
| 20260505170556 | 57 | 9 | 3.0 | 9.0 | 0.00 | 0.00 | 0.00 | 68 | 1011.7 |
| 20260505170109 | 57 | 0 | 1.0 | 9.0 | 0.00 | 0.00 | 0.00 | 68 | 1011.7 |
| 20260505165556 | 58 | 18 | 3.0 | 9.0 | 0.00 | 0.00 | 0.00 | 68 | 1011.7 |
| 20260505165058 | 58 | 13 | 3.0 | 8.0 | 0.00 | 0.00 | 0.00 | 67 | 1011.8 |
| 20260505164555 | 58 | 8 | 1.0 | 8.0 | 0.00 | 0.00 | 0.00 | 68 | 1011.7 |
| 20260505164058 | 58 | 5 | 2.0 | 8.0 | 0.00 | 0.00 | 0.00 | 67 | 1011.8 |
| 20260505163559 | 58 | 350 | 2.0 | 7.0 | 0.00 | 0.00 | 0.00 | 67 | 1011.7 |
| 20260505163059 | 58 | 0 | 3.0 | 9.0 | 0.00 | 0.00 | 0.00 | 66 | 1011.7 |
| 20260505162559 | 58 | 24 | 3.0 | 10.0 | 0.00 | 0.00 | 0.00 | 66 | 1011.9 |
| 20260505162057 | 59 | 19 | 4.0 | 10.0 | 0.00 | 0.00 | 0.00 | 66 | 1011.8 |
| 20260505161615 | 59 | 355 | 5.0 | 10.0 | 0.00 | 0.00 | 0.00 | 65 | 1011.8 |
| 20260505161056 | 59 | 12 | 4.0 | 9.0 | 0.00 | 0.00 | 0.00 | 64 | 1011.9 |
| 20260505160556 | 59 | 4 | 4.0 | 9.0 | 0.00 | 0.00 | 0.00 | 63 | 1011.8 |
| 20260505153105 | 59 | 28 | 1.0 | 8.0 | 0.00 | 0.00 | 0.00 | 64 | 1011.8 |
| 20260505152558 | 59 | 28 | 3.0 | 8.0 | 0.00 | 0.00 | 0.00 | 63 | 1011.9 |
| 20260505152058 | 59 | 18 | 3.0 | 8.0 | 0.00 | 0.00 | 0.00 | 64 | 1011.9 |
| 20260505151605 | 59 | 36 | 1.0 | 5.0 | 0.00 | 0.00 | 0.00 | 65 | 1011.8 |
| 20260505151059 | 59 | 37 | 1.0 | 4.0 | 0.00 | 0.00 | 0.00 | 64 | 1012.0 |
| 20260505150558 | 58 | 0 | 1.0 | 4.0 | 0.00 | 0.00 | 0.00 | 64 | 1012.1 |
| 20260505140556 | 58 | 12 | 2.0 | 10.0 | 0.00 | 0.00 | 0.00 | 65 | 1012.2 |
| 20260505140104 | 58 | 11 | 4.0 | 9.0 | 0.00 | 0.00 | 0.00 | 65 | 1012.2 |
| 20260505124557 | 59 | 19 | 4.0 | 9.0 | 0.00 | 0.00 | 0.00 | 64 | 1012.4 |
| 20260505124057 | 59 | 0 | 2.0 | 5.0 | 0.00 | 0.00 | 0.00 | 64 | 1012.4 |
| 20260505123558 | 59 | 0 | 1.0 | 5.0 | 0.00 | 0.00 | 0.00 | 64 | 1012.4 |
| 20260505123059 | 59 | 0 | 2.0 | 8.0 | 0.00 | 0.00 | 0.00 | 65 | 1012.4 |
| 20260505122556 | 59 | 360 | 2.0 | 8.0 | 0.00 | 0.00 | 0.00 | 66 | 1012.4 |
| 20260505122056 | 59 | 350 | 2.0 | 9.0 | 0.00 | 0.00 | 0.00 | 65 | 1012.4 |
| 20260505121625 | 59 | 42 | 3.0 | 9.0 | 0.00 | 0.00 | 0.00 | 65 | 1012.4 |
| 20260505121056 | 59 | 9 | 2.0 | 9.0 | 0.00 | 0.00 | 0.00 | 67 | 1012.4 |
| 20260505120556 | 59 | 355 | 4.0 | 9.0 | 0.00 | 0.00 | 0.00 | 66 | 1012.4 |
| 20260505120058 | 59 | 355 | 4.0 | 10.0 | 0.00 | 0.00 | 0.00 | 68 | 1012.4 |
| 20260505115600 | 59 | 14 | 2.0 | 10.0 | 0.00 | 0.00 | 0.00 | 68 | 1012.5 |
| 20260505115058 | 58 | 5 | 4.0 | 10.0 | 0.00 | 0.00 | 0.00 | 68 | 1012.5 |
| 20260505114556 | 58 | 30 | 4.0 | 9.0 | 0.00 | 0.00 | 0.00 | 68 | 1012.6 |
| 20260505114056 | 58 | 0 | 1.0 | 9.0 | 0.00 | 0.00 | 0.00 | 71 | 1012.6 |
| 20260505113555 | 57 | 39 | 3.0 | 9.0 | 0.00 | 0.00 | 0.00 | 71 | 1012.5 |
| 20260505113058 | 57 | 355 | 3.0 | 9.0 | 0.00 | 0.00 | 0.00 | 73 | 1012.6 |
| 20260505112556 | 56 | 12 | 3.0 | 8.0 | 0.00 | 0.00 | 0.00 | 75 | 1012.7 |
| 20260505112056 | 55 | 18 | 2.0 | 6.0 | 0.00 | 0.00 | 0.00 | 75 | 1012.9 |
| 20260505111557 | 55 | 42 | 2.0 | 6.0 | 0.00 | 0.00 | 0.00 | 75 | 1012.9 |
| 20260505111056 | 55 | 43 | 2.0 | 7.0 | 0.00 | 0.00 | 0.00 | 75 | 1012.8 |
| 20260505110557 | 55 | 43 | 2.0 | 7.0 | 0.00 | 0.00 | 0.00 | 75 | 1012.9 |
| 20260505102055 | 54 | 22 | 3.0 | 9.0 | 0.00 | 0.00 | 0.00 | 77 | 1013.0 |
| 20260505101559 | 54 | 45 | 2.0 | 9.0 | 0.00 | 0.00 | 0.00 | 78 | 1013.1 |
| 20260505101055 | 54 | 43 | 4.0 | 9.0 | 0.00 | 0.00 | 0.00 | 78 | 1013.1 |
| 20260505100557 | 54 | 33 | 3.0 | 8.0 | 0.00 | 0.00 | 0.00 | 78 | 1013.0 |
| 20260505095600 | 54 | 16 | 1.0 | 8.0 | 0.00 | 0.00 | 0.00 | 79 | 1013.1 |
| 20260505095056 | 53 | 0 | 1.0 | 10.0 | 0.00 | 0.00 | 0.00 | 78 | 1013.0 |
| 20260505094601 | 54 | 53 | 4.0 | 10.0 | 0.00 | 0.00 | 0.00 | 78 | 1013.1 |
| 20260505094056 | 54 | 7 | 3.0 | 10.0 | 0.00 | 0.00 | 0.00 | 78 | 1013.2 |
| 20260505093556 | 54 | 19 | 3.0 | 8.0 | 0.00 | 0.00 | 0.00 | 79 | 1013.1 |
| 20260505093100 | 54 | 20 | 2.0 | 7.0 | 0.00 | 0.00 | 0.00 | 80 | 1013.1 |
| 20260505092601 | 54 | 38 | 3.0 | 8.0 | 0.00 | 0.00 | 0.00 | 80 | 1013.0 |
| 20260505092056 | 53 | 31 | 3.0 | 8.0 | 0.00 | 0.00 | 0.00 | 80 | 1013.1 |
| 20260505091557 | 53 | 28 | 1.0 | 6.0 | 0.00 | 0.00 | 0.00 | 80 | 1013.2 |
| 20260505091100 | 53 | 31 | 2.0 | 10.0 | 0.00 | 0.00 | 0.00 | 80 | 1013.2 |
| 20260505090556 | 53 | 32 | 3.0 | 10.0 | 0.00 | 0.00 | 0.00 | 80 | 1013.1 |
| 20260505090106 | 53 | 44 | 5.0 | 10.0 | 0.00 | 0.00 | 0.00 | 81 | 1013.3 |
| 20260505085556 | 53 | 39 | 3.0 | 9.0 | 0.00 | 0.00 | 0.00 | 81 | 1013.3 |
| 20260505085057 | 53 | 15 | 3.0 | 9.0 | 0.00 | 0.00 | 0.00 | 82 | 1013.4 |
| 20260505084559 | 53 | 25 | 1.0 | 10.0 | 0.00 | 0.00 | 0.00 | 83 | 1013.4 |
| 20260505084057 | 53 | 29 | 3.0 | 10.0 | 0.00 | 0.00 | 0.00 | 82 | 1013.3 |
| 20260505083556 | 53 | 332 | 4.0 | 8.0 | 0.00 | 0.00 | 0.00 | 83 | 1013.3 |
| 20260505083104 | 53 | 51 | 3.0 | 10.0 | 0.00 | 0.00 | 0.00 | 83 | 1013.4 |
| 20260505082556 | 53 | 27 | 3.0 | 10.0 | 0.00 | 0.00 | 0.00 | 84 | 1013.4 |
| 20260505082056 | 53 | 21 | 5.0 | 10.0 | 0.00 | 0.00 | 0.00 | 84 | 1013.3 |
| 20260505081602 | 52 | 17 | 2.0 | 10.0 | 0.00 | 0.00 | 0.00 | 84 | 1013.4 |
| 20260505081058 | 52 | 17 | 4.0 | 10.0 | 0.00 | 0.00 | 0.00 | 84 | 1013.5 |
| 20260505080558 | 52 | 33 | 4.0 | 10.0 | 0.00 | 0.00 | 0.00 | 84 | 1013.3 |
| 20260505075557 | 52 | 27 | 4.0 | 10.0 | 0.00 | 0.00 | 0.00 | 84 | 1013.4 |
| 20260505075056 | 52 | 31 | 3.0 | 9.0 | 0.00 | 0.00 | 0.00 | 84 | 1013.4 |
| 20260505074609 | 52 | 28 | 3.0 | 10.0 | 0.00 | 0.00 | 0.00 | 84 | 1013.3 |
| 20260505074059 | 52 | 24 | 4.0 | 10.0 | 0.00 | 0.00 | 0.00 | 84 | 1013.3 |
| 20260505073557 | 52 | 18 | 3.0 | 10.0 | 0.00 | 0.00 | 0.00 | 84 | 1013.3 |
| 20260505073059 | 52 | 18 | 3.0 | 10.0 | 0.00 | 0.00 | 0.00 | 85 | 1013.6 |
| 20260505072558 | 52 | 23 | 2.0 | 6.0 | 0.00 | 0.00 | 0.00 | 85 | 1013.4 |
| 20260505072055 | 52 | 0 | 1.0 | 8.0 | 0.00 | 0.00 | 0.00 | 85 | 1013.5 |
| 20260505071558 | 52 | 18 | 3.0 | 10.0 | 0.00 | 0.00 | 0.00 | 86 | 1013.5 |
| 20260505071056 | 52 | 20 | 2.0 | 10.0 | 0.00 | 0.00 | 0.00 | 86 | 1013.4 |
| 20260505070557 | 52 | 20 | 4.0 | 10.0 | 0.00 | 0.00 | 0.00 | 86 | 1013.4 |
| 20260505070059 | 52 | 39 | 2.0 | 7.0 | 0.00 | 0.00 | 0.00 | 87 | 1013.4 |
| 20260505065557 | 52 | 39 | 2.0 | 7.0 | 0.00 | 0.00 | 0.00 | 87 | 1013.5 |
| 20260505065056 | 52 | 27 | 2.0 | 6.0 | 0.00 | 0.00 | 0.00 | 88 | 1013.5 |
| 20260505064600 | 52 | 27 | 3.0 | 7.0 | 0.00 | 0.00 | 0.00 | 88 | 1013.5 |
| 20260505064056 | 52 | 28 | 1.0 | 7.0 | 0.00 | 0.00 | 0.00 | 89 | 1013.4 |
| 20260505063557 | 52 | 36 | 3.0 | 7.0 | 0.00 | 0.00 | 0.00 | 89 | 1013.5 |
| 20260505063059 | 51 | 36 | 2.0 | 6.0 | 0.00 | 0.00 | 0.00 | 90 | 1013.4 |
| 20260505062558 | 51 | 36 | 1.0 | 6.0 | 0.00 | 0.00 | 0.00 | 90 | 1013.4 |
| 20260505062058 | 51 | 35 | 0.0 | 5.0 | 0.00 | 0.00 | 0.00 | 90 | 1013.3 |
| 20260505061607 | 51 | 34 | 1.0 | 5.0 | 0.00 | 0.00 | 0.00 | 90 | 1013.3 |
| 20260505061058 | 51 | 34 | 0.0 | 5.0 | 0.00 | 0.00 | 0.00 | 90 | 1013.2 |
| 20260505060558 | 51 | 34 | 1.0 | 5.0 | 0.00 | 0.00 | 0.00 | 90 | 1013.3 |
| 20260505060103 | 50 | 0 | 2.0 | 5.0 | 0.00 | 0.00 | 0.00 | 90 | 1013.3 |
| 20260505055559 | 50 | 34 | 1.0 | 4.0 | 0.00 | 0.00 | 0.00 | 90 | 1013.3 |
| 20260505055058 | 50 | 34 | 1.0 | 4.0 | 0.00 | 0.00 | 0.00 | 90 | 1013.4 |
| 20260505054559 | 50 | 34 | 0.0 | 6.0 | 0.00 | 0.00 | 0.00 | 90 | 1013.3 |
| 20260505054058 | 50 | 0 | 1.0 | 6.0 | 0.00 | 0.00 | 0.00 | 90 | 1013.3 |
| 20260505053557 | 50 | 0 | 0.0 | 5.0 | 0.00 | 0.00 | 0.00 | 90 | 1013.4 |
| 20260505053106 | 50 | 34 | 2.0 | 5.0 | 0.00 | 0.00 | 0.00 | 90 | 1013.5 |
| 20260505052602 | 50 | 0 | 1.0 | 5.0 | 0.00 | 0.00 | 0.00 | 90 | 1013.5 |
| 20260505052056 | 50 | 0 | 0.0 | 5.0 | 0.00 | 0.00 | 0.00 | 90 | 1013.5 |
| 20260505051557 | 50 | 0 | 1.0 | 5.0 | 0.00 | 0.00 | 0.00 | 90 | 1013.4 |
| 20260505051058 | 50 | 34 | 1.0 | 4.0 | 0.00 | 0.00 | 0.00 | 90 | 1013.4 |
| 20260505050558 | 50 | 0 | 1.0 | 7.0 | 0.00 | 0.00 | 0.00 | 90 | 1013.5 |